Date_Time,Julian_Date,Latitude,Longitude,Instrument_Depth,Water_Salinity
(yyyy-mm-dd hh:mn:ss UTC),(JD),(+ deg. North),(+ deg. East),(m),(ppt)
1981-09-03 22:00:00 UTC,2444851.416667,29.6650,-93.4789,0037,24.9000
1981-09-03 22:30:00 UTC,2444851.437500,29.6650,-93.4789,0037,25.1000
1981-09-03 23:00:00 UTC,2444851.458333,29.6650,-93.4789,0037,25.2000
1981-09-03 23:30:00 UTC,2444851.479167,29.6650,-93.4789,0037,25.2000
1981-09-04 00:00:00 UTC,2444851.500000,29.6650,-93.4789,0037,25.3000
1981-09-04 00:30:00 UTC,2444851.520833,29.6650,-93.4789,0037,25.3000
1981-09-04 01:00:00 UTC,2444851.541667,29.6650,-93.4789,0037,25.4000
1981-09-04 01:30:00 UTC,2444851.562500,29.6650,-93.4789,0037,25.4000
1981-09-04 02:00:00 UTC,2444851.583333,29.6650,-93.4789,0037,25.4000
1981-09-04 02:30:00 UTC,2444851.604167,29.6650,-93.4789,0037,25.5000
1981-09-04 03:00:00 UTC,2444851.625000,29.6650,-93.4789,0037,25.4000
1981-09-04 03:30:00 UTC,2444851.645833,29.6650,-93.4789,0037,25.3000
1981-09-04 04:00:00 UTC,2444851.666667,29.6650,-93.4789,0037,25.3000
1981-09-04 04:30:00 UTC,2444851.687500,29.6650,-93.4789,0037,25.3000
1981-09-04 05:00:00 UTC,2444851.708333,29.6650,-93.4789,0037,25.3000
1981-09-04 05:30:00 UTC,2444851.729167,29.6650,-93.4789,0037,25.1000
1981-09-04 06:00:00 UTC,2444851.750000,29.6650,-93.4789,0037,25.1000
1981-09-04 06:30:00 UTC,2444851.770833,29.6650,-93.4789,0037,25.4000
1981-09-04 07:00:00 UTC,2444851.791667,29.6650,-93.4789,0037,25.4000
1981-09-04 07:30:00 UTC,2444851.812500,29.6650,-93.4789,0037,25.1000
1981-09-04 08:00:00 UTC,2444851.833333,29.6650,-93.4789,0037,24.8000
1981-09-04 08:30:00 UTC,2444851.854167,29.6650,-93.4789,0037,24.7000
1981-09-04 09:00:00 UTC,2444851.875000,29.6650,-93.4789,0037,24.6000
1981-09-04 09:30:00 UTC,2444851.895833,29.6650,-93.4789,0037,24.3000
1981-09-04 10:00:00 UTC,2444851.916667,29.6650,-93.4789,0037,23.8000
1981-09-04 10:30:00 UTC,2444851.937500,29.6650,-93.4789,0037,23.3000
1981-09-04 11:00:00 UTC,2444851.958333,29.6650,-93.4789,0037,22.9000
1981-09-04 11:30:00 UTC,2444851.979167,29.6650,-93.4789,0037,22.8000
1981-09-04 12:00:00 UTC,2444852.000000,29.6650,-93.4789,0037,22.7000
1981-09-04 12:30:00 UTC,2444852.020833,29.6650,-93.4789,0037,22.7000
1981-09-04 13:00:00 UTC,2444852.041667,29.6650,-93.4789,0037,22.6000
1981-09-04 13:30:00 UTC,2444852.062500,29.6650,-93.4789,0037,22.5000
1981-09-04 14:00:00 UTC,2444852.083333,29.6650,-93.4789,0037,22.4000
1981-09-04 14:30:00 UTC,2444852.104167,29.6650,-93.4789,0037,22.3000
1981-09-04 15:00:00 UTC,2444852.125000,29.6650,-93.4789,0037,22.3000
1981-09-04 15:30:00 UTC,2444852.145833,29.6650,-93.4789,0037,22.3000
1981-09-04 16:00:00 UTC,2444852.166667,29.6650,-93.4789,0037,22.3000
1981-09-04 16:30:00 UTC,2444852.187500,29.6650,-93.4789,0037,22.3000
1981-09-04 17:00:00 UTC,2444852.208333,29.6650,-93.4789,0037,22.2000
1981-09-04 17:30:00 UTC,2444852.229167,29.6650,-93.4789,0037,22.2000
1981-09-04 18:00:00 UTC,2444852.250000,29.6650,-93.4789,0037,22.2000
1981-09-04 18:30:00 UTC,2444852.270833,29.6650,-93.4789,0037,22.3000
1981-09-04 19:00:00 UTC,2444852.291667,29.6650,-93.4789,0037,22.4000
1981-09-04 19:30:00 UTC,2444852.312500,29.6650,-93.4789,0037,22.6000
1981-09-04 20:00:00 UTC,2444852.333333,29.6650,-93.4789,0037,23.4000
1981-09-04 20:30:00 UTC,2444852.354167,29.6650,-93.4789,0037,24.8000
1981-09-04 21:00:00 UTC,2444852.375000,29.6650,-93.4789,0037,25.4000
1981-09-04 21:30:00 UTC,2444852.395833,29.6650,-93.4789,0037,25.5000
1981-09-04 22:00:00 UTC,2444852.416667,29.6650,-93.4789,0037,25.6000
1981-09-04 22:30:00 UTC,2444852.437500,29.6650,-93.4789,0037,26.0000
1981-09-04 23:00:00 UTC,2444852.458333,29.6650,-93.4789,0037,26.3000
1981-09-04 23:30:00 UTC,2444852.479167,29.6650,-93.4789,0037,26.3000
1981-09-05 00:00:00 UTC,2444852.500000,29.6650,-93.4789,0037,25.9000
1981-09-05 00:30:00 UTC,2444852.520833,29.6650,-93.4789,0037,25.5000
1981-09-05 01:00:00 UTC,2444852.541667,29.6650,-93.4789,0037,25.4000
1981-09-05 01:30:00 UTC,2444852.562500,29.6650,-93.4789,0037,25.4000
1981-09-05 02:00:00 UTC,2444852.583333,29.6650,-93.4789,0037,25.4000
1981-09-05 02:30:00 UTC,2444852.604167,29.6650,-93.4789,0037,25.4000
1981-09-05 03:00:00 UTC,2444852.625000,29.6650,-93.4789,0037,25.4000
1981-09-05 03:30:00 UTC,2444852.645833,29.6650,-93.4789,0037,25.4000
1981-09-05 04:00:00 UTC,2444852.666667,29.6650,-93.4789,0037,25.4000
1981-09-05 04:30:00 UTC,2444852.687500,29.6650,-93.4789,0037,25.3000
1981-09-05 05:00:00 UTC,2444852.708333,29.6650,-93.4789,0037,25.2000
1981-09-05 05:30:00 UTC,2444852.729167,29.6650,-93.4789,0037,25.0000
1981-09-05 06:00:00 UTC,2444852.750000,29.6650,-93.4789,0037,24.9000
1981-09-05 06:30:00 UTC,2444852.770833,29.6650,-93.4789,0037,24.8000
1981-09-05 07:00:00 UTC,2444852.791667,29.6650,-93.4789,0037,24.8000
1981-09-05 07:30:00 UTC,2444852.812500,29.6650,-93.4789,0037,24.9000
1981-09-05 08:00:00 UTC,2444852.833333,29.6650,-93.4789,0037,25.1000
1981-09-05 08:30:00 UTC,2444852.854167,29.6650,-93.4789,0037,25.1000
1981-09-05 09:00:00 UTC,2444852.875000,29.6650,-93.4789,0037,25.1000
1981-09-05 09:30:00 UTC,2444852.895833,29.6650,-93.4789,0037,25.1000
1981-09-05 10:00:00 UTC,2444852.916667,29.6650,-93.4789,0037,25.0000
1981-09-05 10:30:00 UTC,2444852.937500,29.6650,-93.4789,0037,25.0000
1981-09-05 11:00:00 UTC,2444852.958333,29.6650,-93.4789,0037,24.9000
1981-09-05 11:30:00 UTC,2444852.979167,29.6650,-93.4789,0037,24.9000
1981-09-05 12:00:00 UTC,2444853.000000,29.6650,-93.4789,0037,25.0000
1981-09-05 12:30:00 UTC,2444853.020833,29.6650,-93.4789,0037,25.0000
1981-09-05 13:00:00 UTC,2444853.041667,29.6650,-93.4789,0037,24.9000
1981-09-05 13:30:00 UTC,2444853.062500,29.6650,-93.4789,0037,24.8000
1981-09-05 14:00:00 UTC,2444853.083333,29.6650,-93.4789,0037,24.7000
1981-09-05 14:30:00 UTC,2444853.104167,29.6650,-93.4789,0037,24.7000
1981-09-05 15:00:00 UTC,2444853.125000,29.6650,-93.4789,0037,24.7000
1981-09-05 15:30:00 UTC,2444853.145833,29.6650,-93.4789,0037,24.6000
1981-09-05 16:00:00 UTC,2444853.166667,29.6650,-93.4789,0037,24.6000
1981-09-05 16:30:00 UTC,2444853.187500,29.6650,-93.4789,0037,24.6000
1981-09-05 17:00:00 UTC,2444853.208333,29.6650,-93.4789,0037,24.5000
1981-09-05 17:30:00 UTC,2444853.229167,29.6650,-93.4789,0037,24.2000
1981-09-05 18:00:00 UTC,2444853.250000,29.6650,-93.4789,0037,23.8000
1981-09-05 18:30:00 UTC,2444853.270833,29.6650,-93.4789,0037,23.4000
1981-09-05 19:00:00 UTC,2444853.291667,29.6650,-93.4789,0037,23.1000
1981-09-05 19:30:00 UTC,2444853.312500,29.6650,-93.4789,0037,23.1000
1981-09-05 20:00:00 UTC,2444853.333333,29.6650,-93.4789,0037,23.3000
1981-09-05 20:30:00 UTC,2444853.354167,29.6650,-93.4789,0037,23.5000
1981-09-05 21:00:00 UTC,2444853.375000,29.6650,-93.4789,0037,23.2000
1981-09-05 21:30:00 UTC,2444853.395833,29.6650,-93.4789,0037,22.9000
1981-09-05 22:00:00 UTC,2444853.416667,29.6650,-93.4789,0037,22.7000
1981-09-05 22:30:00 UTC,2444853.437500,29.6650,-93.4789,0037,22.8000
1981-09-05 23:00:00 UTC,2444853.458333,29.6650,-93.4789,0037,23.9000
1981-09-05 23:30:00 UTC,2444853.479167,29.6650,-93.4789,0037,25.9000
1981-09-06 00:00:00 UTC,2444853.500000,29.6650,-93.4789,0037,27.5000
1981-09-06 00:30:00 UTC,2444853.520833,29.6650,-93.4789,0037,28.8000
1981-09-06 01:00:00 UTC,2444853.541667,29.6650,-93.4789,0037,29.9000
1981-09-06 01:30:00 UTC,2444853.562500,29.6650,-93.4789,0037,30.4000
1981-09-06 02:00:00 UTC,2444853.583333,29.6650,-93.4789,0037,30.7000
1981-09-06 02:30:00 UTC,2444853.604167,29.6650,-93.4789,0037,31.0000
1981-09-06 03:00:00 UTC,2444853.625000,29.6650,-93.4789,0037,31.1000
1981-09-06 03:30:00 UTC,2444853.645833,29.6650,-93.4789,0037,31.2000
1981-09-06 04:00:00 UTC,2444853.666667,29.6650,-93.4789,0037,31.1000
1981-09-06 04:30:00 UTC,2444853.687500,29.6650,-93.4789,0037,30.9000
1981-09-06 05:00:00 UTC,2444853.708333,29.6650,-93.4789,0037,30.8000
1981-09-06 05:30:00 UTC,2444853.729167,29.6650,-93.4789,0037,30.7000
1981-09-06 06:00:00 UTC,2444853.750000,29.6650,-93.4789,0037,30.7000
1981-09-06 06:30:00 UTC,2444853.770833,29.6650,-93.4789,0037,30.6000
1981-09-06 07:00:00 UTC,2444853.791667,29.6650,-93.4789,0037,30.5000
1981-09-06 07:30:00 UTC,2444853.812500,29.6650,-93.4789,0037,30.5000
1981-09-06 08:00:00 UTC,2444853.833333,29.6650,-93.4789,0037,30.5000
1981-09-06 08:30:00 UTC,2444853.854167,29.6650,-93.4789,0037,30.6000
1981-09-06 09:00:00 UTC,2444853.875000,29.6650,-93.4789,0037,30.8000
1981-09-06 09:30:00 UTC,2444853.895833,29.6650,-93.4789,0037,30.9000
1981-09-06 10:00:00 UTC,2444853.916667,29.6650,-93.4789,0037,30.8000
1981-09-06 10:30:00 UTC,2444853.937500,29.6650,-93.4789,0037,30.6000
1981-09-06 11:00:00 UTC,2444853.958333,29.6650,-93.4789,0037,30.0000
1981-09-06 11:30:00 UTC,2444853.979167,29.6650,-93.4789,0037,28.8000
1981-09-06 12:00:00 UTC,2444854.000000,29.6650,-93.4789,0037,27.6000
1981-09-06 12:30:00 UTC,2444854.020833,29.6650,-93.4789,0037,27.0000
1981-09-06 13:00:00 UTC,2444854.041667,29.6650,-93.4789,0037,26.8000
1981-09-06 13:30:00 UTC,2444854.062500,29.6650,-93.4789,0037,26.5000
1981-09-06 14:00:00 UTC,2444854.083333,29.6650,-93.4789,0037,26.2000
1981-09-06 14:30:00 UTC,2444854.104167,29.6650,-93.4789,0037,26.2000
1981-09-06 15:00:00 UTC,2444854.125000,29.6650,-93.4789,0037,26.2000
1981-09-06 15:30:00 UTC,2444854.145833,29.6650,-93.4789,0037,26.4000
1981-09-06 16:00:00 UTC,2444854.166667,29.6650,-93.4789,0037,26.4000
1981-09-06 16:30:00 UTC,2444854.187500,29.6650,-93.4789,0037,26.3000
1981-09-06 17:00:00 UTC,2444854.208333,29.6650,-93.4789,0037,26.3000
1981-09-06 17:30:00 UTC,2444854.229167,29.6650,-93.4789,0037,26.4000
1981-09-06 18:00:00 UTC,2444854.250000,29.6650,-93.4789,0037,26.4000
1981-09-06 18:30:00 UTC,2444854.270833,29.6650,-93.4789,0037,26.5000
1981-09-06 19:00:00 UTC,2444854.291667,29.6650,-93.4789,0037,26.6000
1981-09-06 19:30:00 UTC,2444854.312500,29.6650,-93.4789,0037,26.7000
1981-09-06 20:00:00 UTC,2444854.333333,29.6650,-93.4789,0037,26.9000
1981-09-06 20:30:00 UTC,2444854.354167,29.6650,-93.4789,0037,27.0000
1981-09-06 21:00:00 UTC,2444854.375000,29.6650,-93.4789,0037,27.1000
1981-09-06 21:30:00 UTC,2444854.395833,29.6650,-93.4789,0037,27.3000
1981-09-06 22:00:00 UTC,2444854.416667,29.6650,-93.4789,0037,27.5000
1981-09-06 22:30:00 UTC,2444854.437500,29.6650,-93.4789,0037,27.7000
1981-09-06 23:00:00 UTC,2444854.458333,29.6650,-93.4789,0037,26.8000
1981-09-06 23:30:00 UTC,2444854.479167,29.6650,-93.4789,0037,25.3000
1981-09-07 00:00:00 UTC,2444854.500000,29.6650,-93.4789,0037,24.8000
1981-09-07 00:30:00 UTC,2444854.520833,29.6650,-93.4789,0037,25.0000
1981-09-07 01:00:00 UTC,2444854.541667,29.6650,-93.4789,0037,25.1000
1981-09-07 01:30:00 UTC,2444854.562500,29.6650,-93.4789,0037,25.4000
1981-09-07 02:00:00 UTC,2444854.583333,29.6650,-93.4789,0037,25.7000
1981-09-07 02:30:00 UTC,2444854.604167,29.6650,-93.4789,0037,25.9000
1981-09-07 03:00:00 UTC,2444854.625000,29.6650,-93.4789,0037,26.1000
1981-09-07 03:30:00 UTC,2444854.645833,29.6650,-93.4789,0037,26.5000
1981-09-07 04:00:00 UTC,2444854.666667,29.6650,-93.4789,0037,26.9000
1981-09-07 04:30:00 UTC,2444854.687500,29.6650,-93.4789,0037,27.2000
1981-09-07 05:00:00 UTC,2444854.708333,29.6650,-93.4789,0037,27.5000
1981-09-07 05:30:00 UTC,2444854.729167,29.6650,-93.4789,0037,27.6000
1981-09-07 06:00:00 UTC,2444854.750000,29.6650,-93.4789,0037,27.7000
1981-09-07 06:30:00 UTC,2444854.770833,29.6650,-93.4789,0037,27.5000
1981-09-07 07:00:00 UTC,2444854.791667,29.6650,-93.4789,0037,27.3000
1981-09-07 07:30:00 UTC,2444854.812500,29.6650,-93.4789,0037,27.4000
1981-09-07 08:00:00 UTC,2444854.833333,29.6650,-93.4789,0037,27.4000
1981-09-07 08:30:00 UTC,2444854.854167,29.6650,-93.4789,0037,27.2000
1981-09-07 09:00:00 UTC,2444854.875000,29.6650,-93.4789,0037,26.9000
1981-09-07 09:30:00 UTC,2444854.895833,29.6650,-93.4789,0037,26.5000
1981-09-07 10:00:00 UTC,2444854.916667,29.6650,-93.4789,0037,26.0000
1981-09-07 10:30:00 UTC,2444854.937500,29.6650,-93.4789,0037,25.8000
1981-09-07 11:00:00 UTC,2444854.958333,29.6650,-93.4789,0037,25.9000
1981-09-07 11:30:00 UTC,2444854.979167,29.6650,-93.4789,0037,25.9000
1981-09-07 12:00:00 UTC,2444855.000000,29.6650,-93.4789,0037,25.6000
1981-09-07 12:30:00 UTC,2444855.020833,29.6650,-93.4789,0037,25.4000
1981-09-07 13:00:00 UTC,2444855.041667,29.6650,-93.4789,0037,25.4000
1981-09-07 13:30:00 UTC,2444855.062500,29.6650,-93.4789,0037,25.4000
1981-09-07 14:00:00 UTC,2444855.083333,29.6650,-93.4789,0037,25.4000
1981-09-07 14:30:00 UTC,2444855.104167,29.6650,-93.4789,0037,25.5000
1981-09-07 15:00:00 UTC,2444855.125000,29.6650,-93.4789,0037,25.7000
1981-09-07 15:30:00 UTC,2444855.145833,29.6650,-93.4789,0037,25.8000
1981-09-07 16:00:00 UTC,2444855.166667,29.6650,-93.4789,0037,25.8000
1981-09-07 16:30:00 UTC,2444855.187500,29.6650,-93.4789,0037,25.9000
1981-09-07 17:00:00 UTC,2444855.208333,29.6650,-93.4789,0037,26.0000
1981-09-07 17:30:00 UTC,2444855.229167,29.6650,-93.4789,0037,26.0000
1981-09-07 18:00:00 UTC,2444855.250000,29.6650,-93.4789,0037,26.1000
1981-09-07 18:30:00 UTC,2444855.270833,29.6650,-93.4789,0037,26.1000
1981-09-07 19:00:00 UTC,2444855.291667,29.6650,-93.4789,0037,26.2000
1981-09-07 19:30:00 UTC,2444855.312500,29.6650,-93.4789,0037,26.2000
1981-09-07 20:00:00 UTC,2444855.333333,29.6650,-93.4789,0037,26.2000
1981-09-07 20:30:00 UTC,2444855.354167,29.6650,-93.4789,0037,26.2000
1981-09-07 21:00:00 UTC,2444855.375000,29.6650,-93.4789,0037,26.2000
1981-09-07 21:30:00 UTC,2444855.395833,29.6650,-93.4789,0037,26.2000
1981-09-07 22:00:00 UTC,2444855.416667,29.6650,-93.4789,0037,26.2000
1981-09-07 22:30:00 UTC,2444855.437500,29.6650,-93.4789,0037,26.2000
1981-09-07 23:00:00 UTC,2444855.458333,29.6650,-93.4789,0037,26.2000
1981-09-07 23:30:00 UTC,2444855.479167,29.6650,-93.4789,0037,26.2000
1981-09-08 00:00:00 UTC,2444855.500000,29.6650,-93.4789,0037,26.3000
1981-09-08 00:30:00 UTC,2444855.520833,29.6650,-93.4789,0037,26.3000
1981-09-08 01:00:00 UTC,2444855.541667,29.6650,-93.4789,0037,26.3000
1981-09-08 01:30:00 UTC,2444855.562500,29.6650,-93.4789,0037,26.3000
1981-09-08 02:00:00 UTC,2444855.583333,29.6650,-93.4789,0037,26.4000
1981-09-08 02:30:00 UTC,2444855.604167,29.6650,-93.4789,0037,26.5000
1981-09-08 03:00:00 UTC,2444855.625000,29.6650,-93.4789,0037,26.4000
1981-09-08 03:30:00 UTC,2444855.645833,29.6650,-93.4789,0037,26.4000
1981-09-08 04:00:00 UTC,2444855.666667,29.6650,-93.4789,0037,26.4000
1981-09-08 04:30:00 UTC,2444855.687500,29.6650,-93.4789,0037,26.5000
1981-09-08 05:00:00 UTC,2444855.708333,29.6650,-93.4789,0037,26.5000
1981-09-08 05:30:00 UTC,2444855.729167,29.6650,-93.4789,0037,26.5000
1981-09-08 06:00:00 UTC,2444855.750000,29.6650,-93.4789,0037,26.5000
1981-09-08 06:30:00 UTC,2444855.770833,29.6650,-93.4789,0037,26.6000
1981-09-08 07:00:00 UTC,2444855.791667,29.6650,-93.4789,0037,26.7000
1981-09-08 07:30:00 UTC,2444855.812500,29.6650,-93.4789,0037,26.8000
1981-09-08 08:00:00 UTC,2444855.833333,29.6650,-93.4789,0037,26.8000
1981-09-08 08:30:00 UTC,2444855.854167,29.6650,-93.4789,0037,26.7000
1981-09-08 09:00:00 UTC,2444855.875000,29.6650,-93.4789,0037,26.8000
1981-09-08 09:30:00 UTC,2444855.895833,29.6650,-93.4789,0037,26.8000
1981-09-08 10:00:00 UTC,2444855.916667,29.6650,-93.4789,0037,26.9000
1981-09-08 10:30:00 UTC,2444855.937500,29.6650,-93.4789,0037,27.0000
1981-09-08 11:00:00 UTC,2444855.958333,29.6650,-93.4789,0037,27.0000
1981-09-08 11:30:00 UTC,2444855.979167,29.6650,-93.4789,0037,27.1000
1981-09-08 12:00:00 UTC,2444856.000000,29.6650,-93.4789,0037,27.1000
1981-09-08 12:30:00 UTC,2444856.020833,29.6650,-93.4789,0037,27.2000
1981-09-08 13:00:00 UTC,2444856.041667,29.6650,-93.4789,0037,27.3000
1981-09-08 13:30:00 UTC,2444856.062500,29.6650,-93.4789,0037,27.4000
1981-09-08 14:00:00 UTC,2444856.083333,29.6650,-93.4789,0037,27.4000
1981-09-08 14:30:00 UTC,2444856.104167,29.6650,-93.4789,0037,27.4000
1981-09-08 15:00:00 UTC,2444856.125000,29.6650,-93.4789,0037,27.4000
1981-09-08 15:30:00 UTC,2444856.145833,29.6650,-93.4789,0037,27.5000
1981-09-08 16:00:00 UTC,2444856.166667,29.6650,-93.4789,0037,27.5000
1981-09-08 16:30:00 UTC,2444856.187500,29.6650,-93.4789,0037,27.5000
1981-09-08 17:00:00 UTC,2444856.208333,29.6650,-93.4789,0037,27.4000
1981-09-08 17:30:00 UTC,2444856.229167,29.6650,-93.4789,0037,27.4000
1981-09-08 18:00:00 UTC,2444856.250000,29.6650,-93.4789,0037,27.4000
1981-09-08 18:30:00 UTC,2444856.270833,29.6650,-93.4789,0037,27.4000
1981-09-08 19:00:00 UTC,2444856.291667,29.6650,-93.4789,0037,27.4000
1981-09-08 19:30:00 UTC,2444856.312500,29.6650,-93.4789,0037,27.4000
1981-09-08 20:00:00 UTC,2444856.333333,29.6650,-93.4789,0037,27.4000
1981-09-08 20:30:00 UTC,2444856.354167,29.6650,-93.4789,0037,27.4000
1981-09-08 21:00:00 UTC,2444856.375000,29.6650,-93.4789,0037,27.4000
1981-09-08 21:30:00 UTC,2444856.395833,29.6650,-93.4789,0037,27.4000
1981-09-08 22:00:00 UTC,2444856.416667,29.6650,-93.4789,0037,27.3000
1981-09-08 22:30:00 UTC,2444856.437500,29.6650,-93.4789,0037,27.3000
1981-09-08 23:00:00 UTC,2444856.458333,29.6650,-93.4789,0037,27.3000
1981-09-08 23:30:00 UTC,2444856.479167,29.6650,-93.4789,0037,27.3000
1981-09-09 00:00:00 UTC,2444856.500000,29.6650,-93.4789,0037,27.3000
1981-09-09 00:30:00 UTC,2444856.520833,29.6650,-93.4789,0037,27.3000
1981-09-09 01:00:00 UTC,2444856.541667,29.6650,-93.4789,0037,27.3000
1981-09-09 01:30:00 UTC,2444856.562500,29.6650,-93.4789,0037,27.3000
1981-09-09 02:00:00 UTC,2444856.583333,29.6650,-93.4789,0037,27.3000
1981-09-09 02:30:00 UTC,2444856.604167,29.6650,-93.4789,0037,27.3000
1981-09-09 03:00:00 UTC,2444856.625000,29.6650,-93.4789,0037,27.3000
1981-09-09 03:30:00 UTC,2444856.645833,29.6650,-93.4789,0037,27.3000
1981-09-09 04:00:00 UTC,2444856.666667,29.6650,-93.4789,0037,27.3000
1981-09-09 04:30:00 UTC,2444856.687500,29.6650,-93.4789,0037,27.4000
1981-09-09 05:00:00 UTC,2444856.708333,29.6650,-93.4789,0037,27.4000
1981-09-09 05:30:00 UTC,2444856.729167,29.6650,-93.4789,0037,27.4000
1981-09-09 06:00:00 UTC,2444856.750000,29.6650,-93.4789,0037,27.4000
1981-09-09 06:30:00 UTC,2444856.770833,29.6650,-93.4789,0037,27.5000
1981-09-09 07:00:00 UTC,2444856.791667,29.6650,-93.4789,0037,27.5000
1981-09-09 07:30:00 UTC,2444856.812500,29.6650,-93.4789,0037,27.5000
1981-09-09 08:00:00 UTC,2444856.833333,29.6650,-93.4789,0037,27.5000
1981-09-09 08:30:00 UTC,2444856.854167,29.6650,-93.4789,0037,27.4000
1981-09-09 09:00:00 UTC,2444856.875000,29.6650,-93.4789,0037,27.4000
1981-09-09 09:30:00 UTC,2444856.895833,29.6650,-93.4789,0037,27.4000
1981-09-09 10:00:00 UTC,2444856.916667,29.6650,-93.4789,0037,27.4000
1981-09-09 10:30:00 UTC,2444856.937500,29.6650,-93.4789,0037,27.4000
1981-09-09 11:00:00 UTC,2444856.958333,29.6650,-93.4789,0037,27.4000
1981-09-09 11:30:00 UTC,2444856.979167,29.6650,-93.4789,0037,27.4000
1981-09-09 12:00:00 UTC,2444857.000000,29.6650,-93.4789,0037,27.3000
1981-09-09 12:30:00 UTC,2444857.020833,29.6650,-93.4789,0037,26.9000
1981-09-09 13:00:00 UTC,2444857.041667,29.6650,-93.4789,0037,26.3000
1981-09-09 13:30:00 UTC,2444857.062500,29.6650,-93.4789,0037,25.9000
1981-09-09 14:00:00 UTC,2444857.083333,29.6650,-93.4789,0037,25.7000
1981-09-09 14:30:00 UTC,2444857.104167,29.6650,-93.4789,0037,25.4000
1981-09-09 15:00:00 UTC,2444857.125000,29.6650,-93.4789,0037,25.4000
1981-09-09 15:30:00 UTC,2444857.145833,29.6650,-93.4789,0037,25.4000
1981-09-09 16:00:00 UTC,2444857.166667,29.6650,-93.4789,0037,25.4000
1981-09-09 16:30:00 UTC,2444857.187500,29.6650,-93.4789,0037,25.3000
1981-09-09 17:00:00 UTC,2444857.208333,29.6650,-93.4789,0037,25.2000
1981-09-09 17:30:00 UTC,2444857.229167,29.6650,-93.4789,0037,25.2000
1981-09-09 18:00:00 UTC,2444857.250000,29.6650,-93.4789,0037,25.2000
1981-09-09 18:30:00 UTC,2444857.270833,29.6650,-93.4789,0037,25.1000
1981-09-09 19:00:00 UTC,2444857.291667,29.6650,-93.4789,0037,25.0000
1981-09-09 19:30:00 UTC,2444857.312500,29.6650,-93.4789,0037,24.9000
1981-09-09 20:00:00 UTC,2444857.333333,29.6650,-93.4789,0037,24.8000
1981-09-09 20:30:00 UTC,2444857.354167,29.6650,-93.4789,0037,24.8000
1981-09-09 21:00:00 UTC,2444857.375000,29.6650,-93.4789,0037,24.8000
1981-09-09 21:30:00 UTC,2444857.395833,29.6650,-93.4789,0037,24.8000
1981-09-09 22:00:00 UTC,2444857.416667,29.6650,-93.4789,0037,24.9000
1981-09-09 22:30:00 UTC,2444857.437500,29.6650,-93.4789,0037,24.9000
1981-09-09 23:00:00 UTC,2444857.458333,29.6650,-93.4789,0037,25.0000
1981-09-09 23:30:00 UTC,2444857.479167,29.6650,-93.4789,0037,25.0000
1981-09-10 00:00:00 UTC,2444857.500000,29.6650,-93.4789,0037,25.1000
1981-09-10 00:30:00 UTC,2444857.520833,29.6650,-93.4789,0037,25.2000
1981-09-10 01:00:00 UTC,2444857.541667,29.6650,-93.4789,0037,25.2000
1981-09-10 01:30:00 UTC,2444857.562500,29.6650,-93.4789,0037,25.1000
1981-09-10 02:00:00 UTC,2444857.583333,29.6650,-93.4789,0037,25.1000
1981-09-10 02:30:00 UTC,2444857.604167,29.6650,-93.4789,0037,25.0000
1981-09-10 03:00:00 UTC,2444857.625000,29.6650,-93.4789,0037,24.9000
1981-09-10 03:30:00 UTC,2444857.645833,29.6650,-93.4789,0037,24.9000
1981-09-10 04:00:00 UTC,2444857.666667,29.6650,-93.4789,0037,24.9000
1981-09-10 04:30:00 UTC,2444857.687500,29.6650,-93.4789,0037,24.9000
1981-09-10 05:00:00 UTC,2444857.708333,29.6650,-93.4789,0037,24.9000
1981-09-10 05:30:00 UTC,2444857.729167,29.6650,-93.4789,0037,24.9000
1981-09-10 06:00:00 UTC,2444857.750000,29.6650,-93.4789,0037,25.0000
1981-09-10 06:30:00 UTC,2444857.770833,29.6650,-93.4789,0037,25.0000
1981-09-10 07:00:00 UTC,2444857.791667,29.6650,-93.4789,0037,25.0000
1981-09-10 07:30:00 UTC,2444857.812500,29.6650,-93.4789,0037,25.0000
1981-09-10 08:00:00 UTC,2444857.833333,29.6650,-93.4789,0037,25.0000
1981-09-10 08:30:00 UTC,2444857.854167,29.6650,-93.4789,0037,25.0000
1981-09-10 09:00:00 UTC,2444857.875000,29.6650,-93.4789,0037,25.0000
1981-09-10 09:30:00 UTC,2444857.895833,29.6650,-93.4789,0037,25.0000
1981-09-10 10:00:00 UTC,2444857.916667,29.6650,-93.4789,0037,25.0000
1981-09-10 10:30:00 UTC,2444857.937500,29.6650,-93.4789,0037,24.9000
1981-09-10 11:00:00 UTC,2444857.958333,29.6650,-93.4789,0037,24.9000
1981-09-10 11:30:00 UTC,2444857.979167,29.6650,-93.4789,0037,24.9000
1981-09-10 12:00:00 UTC,2444858.000000,29.6650,-93.4789,0037,24.9000
1981-09-10 12:30:00 UTC,2444858.020833,29.6650,-93.4789,0037,25.0000
1981-09-10 13:00:00 UTC,2444858.041667,29.6650,-93.4789,0037,24.9000
1981-09-10 13:30:00 UTC,2444858.062500,29.6650,-93.4789,0037,25.0000
1981-09-10 14:00:00 UTC,2444858.083333,29.6650,-93.4789,0037,25.0000
1981-09-10 14:30:00 UTC,2444858.104167,29.6650,-93.4789,0037,25.0000
1981-09-10 15:00:00 UTC,2444858.125000,29.6650,-93.4789,0037,25.0000
1981-09-10 15:30:00 UTC,2444858.145833,29.6650,-93.4789,0037,25.0000
1981-09-10 16:00:00 UTC,2444858.166667,29.6650,-93.4789,0037,25.0000
1981-09-10 16:30:00 UTC,2444858.187500,29.6650,-93.4789,0037,25.0000
1981-09-10 17:00:00 UTC,2444858.208333,29.6650,-93.4789,0037,25.1000
1981-09-10 17:30:00 UTC,2444858.229167,29.6650,-93.4789,0037,25.1000
1981-09-10 18:00:00 UTC,2444858.250000,29.6650,-93.4789,0037,25.2000
1981-09-10 18:30:00 UTC,2444858.270833,29.6650,-93.4789,0037,25.2000
1981-09-10 19:00:00 UTC,2444858.291667,29.6650,-93.4789,0037,25.2000
1981-09-10 19:30:00 UTC,2444858.312500,29.6650,-93.4789,0037,25.2000
1981-09-10 20:00:00 UTC,2444858.333333,29.6650,-93.4789,0037,25.2000
1981-09-10 20:30:00 UTC,2444858.354167,29.6650,-93.4789,0037,25.3000
1981-09-10 21:00:00 UTC,2444858.375000,29.6650,-93.4789,0037,25.3000
1981-09-10 21:30:00 UTC,2444858.395833,29.6650,-93.4789,0037,25.4000
1981-09-10 22:00:00 UTC,2444858.416667,29.6650,-93.4789,0037,25.4000
1981-09-10 22:30:00 UTC,2444858.437500,29.6650,-93.4789,0037,25.4000
1981-09-10 23:00:00 UTC,2444858.458333,29.6650,-93.4789,0037,25.4000
1981-09-10 23:30:00 UTC,2444858.479167,29.6650,-93.4789,0037,25.4000
1981-09-11 00:00:00 UTC,2444858.500000,29.6650,-93.4789,0037,25.4000
1981-09-11 00:30:00 UTC,2444858.520833,29.6650,-93.4789,0037,25.4000
1981-09-11 01:00:00 UTC,2444858.541667,29.6650,-93.4789,0037,25.4000
1981-09-11 01:30:00 UTC,2444858.562500,29.6650,-93.4789,0037,25.4000
1981-09-11 02:00:00 UTC,2444858.583333,29.6650,-93.4789,0037,25.4000